KB7YYZ Weather Reports


time (UTC)temp
C
wind
direction
speed
KPH
gust
KPH
rain 1hr
cm
rain 24hr
cm
rain mn
cm
humidity
%
barometer
mb
20260901233521 35 7 1.6 1.6 0.00 0.00 0.00 42 1008.6
20260901232521 35 259 1.6 1.6 0.00 0.00 0.00 42 1008.7
20260901231525 35 284 1.6 1.6 0.00 0.00 0.00 42 1008.7
20260901230540 35 267 1.6 1.6 0.00 0.00 0.00 42 1008.8
20260901225546 35 309 1.6 1.6 0.00 0.00 0.00 42 1009.0
20260901224524 35 318 1.6 1.6 0.00 0.00 0.00 41 1009.1
20260901223531 35 310 1.6 1.6 0.00 0.00 0.00 41 1009.1
20260901222622 35 226 1.6 1.6 0.00 0.00 0.00 41 1009.3
20260901221538 35 280 1.6 1.6 0.00 0.00 0.00 41 1009.4
20260901220548 35 295 1.6 1.6 0.00 0.00 0.00 41 1009.5
20260901215521 35 332 1.6 1.6 0.00 0.00 0.00 41 1009.6
20260901214527 35 213 1.6 1.6 0.00 0.00 0.00 41 1009.7
20260901213534 35 300 1.6 1.6 0.00 0.00 0.00 42 1009.8
20260901212533 35 273 1.6 3.2 0.00 0.00 0.00 41 1010.0
20260901211528 35 239 1.6 1.6 0.00 0.00 0.00 41 1010.1
20260901210545 35 310 1.6 1.6 0.00 0.00 0.00 41 1010.3
20260901205524 35 295 1.6 1.6 0.00 0.00 0.00 41 1010.4
20260901204546 35 349 1.6 1.6 0.00 0.00 0.00 40 1010.5
20260901203530 35 219 1.6 1.6 0.00 0.00 0.00 41 1010.7
20260901202532 35 341 0.0 1.6 0.00 0.00 0.00 40 1010.9
20260901201524 34 305 0.0 1.6 0.00 0.00 0.00 40 1011.0
20260901200522 34 338 1.6 1.6 0.00 0.00 0.00 42 1011.1
20260901195520 34 257 1.6 1.6 0.00 0.00 0.00 41 1011.2
20260901194528 34 223 1.6 3.2 0.00 0.00 0.00 41 1011.3
20260901193539 34 281 0.0 1.6 0.00 0.00 0.00 42 1011.5
20260901192541 34 320 1.6 1.6 0.00 0.00 0.00 43 1011.6
20260901191533 34 83 1.6 1.6 0.00 0.00 0.00 43 1011.7
20260901190524 33 267 0.0 1.6 0.00 0.00 0.00 43 1011.8
20260901185524 33 179 1.6 1.6 0.00 0.00 0.00 43 1011.9
20260901184540 33 334 0.0 1.6 0.00 0.00 0.00 43 1011.9
20260901183548 33 295 1.6 1.6 0.00 0.00 0.00 44 1012.0
20260901182550 33 210 1.6 1.6 0.00 0.00 0.00 44 1012.1
20260901181521 33 259 1.6 1.6 0.00 0.00 0.00 44 1012.1
20260901180521 33 308 1.6 1.6 0.00 0.00 0.00 45 1012.2
20260901175539 32 252 1.6 1.6 0.00 0.00 0.00 45 1012.2
20260901174539 32 215 0.0 1.6 0.00 0.00 0.00 46 1012.3
20260901173527 32 251 0.0 1.6 0.00 0.00 0.00 47 1012.3
20260901172533 32 237 1.6 1.6 0.00 0.00 0.00 46 1012.3
20260901171524 31 159 1.6 1.6 0.00 0.00 0.00 48 1012.3
20260901170543 31 224 0.0 0.0 0.00 0.00 0.00 50 1012.3
20260901165527 31 209 0.0 1.6 0.00 0.00 0.00 51 1012.3
20260901164525 31 216 0.0 1.6 0.00 0.00 0.00 52 1012.3
20260901163523 30 279 0.0 0.0 0.00 0.00 0.00 53 1012.2
20260901162522 30 262 0.0 1.6 0.00 0.00 0.00 53 1012.3
20260901161519 30 175 1.6 1.6 0.00 0.00 0.00 54 1012.3
20260901160533 29 178 1.6 1.6 0.00 0.00 0.00 54 1012.3
20260901155521 29 154 1.6 1.6 0.00 0.00 0.00 55 1012.3
20260901154536 28 156 1.6 1.6 0.00 0.00 0.00 55 1012.3
20260901153544 28 185 0.0 1.6 0.00 0.00 0.00 55 1012.4
20260901152526 28 199 0.0 0.0 0.00 0.00 0.00 55 1012.5
20260901151550 27 177 0.0 1.6 0.00 0.00 0.00 55 1012.4
20260901150536 27 196 0.0 1.6 0.00 0.00 0.00 55 1012.3
20260901145532 26 187 0.0 1.6 0.00 0.00 0.00 55 1012.3
20260901144549 26 22 0.0 0.0 0.00 0.00 0.00 54 1012.5
20260901143705 26 0.0 0.0 0.00 0.00 0.00 54 1012.5
20260901142528 25 0.0 0.0 0.00 0.00 0.00 54 1012.5
20260901141534 25 0.0 0.0 0.00 0.00 0.00 55
20260901140525 24 0.0 1.6 0.00 0.08 0.00 55 1012.1
20260901135534 24 0.0 0.0 0.00 0.08 0.00 55 1012.0
20260901134520 23 338 0.0 0.0 0.00 0.08 0.00 54 1012.0
20260901133525 23 0.0 0.0 0.00 0.08 0.00 54 1011.9
20260901132530 23 0.0 0.0 0.00 0.08 0.00 54 1011.8
20260901131526 23 0.0 0.0 0.00 0.08 0.00 54 1011.7
20260901130524 23 0.0 0.0 0.00 0.08 0.00 54 1011.6
20260901125522 23 0.0 0.0 0.00 0.08 0.00 54 1011.5
20260901124523 23 0.0 0.0 0.00 0.08 0.00 54 1011.3
20260901123528 23 0.0 0.0 0.00 0.08 0.00 55 1011.2
20260901122522 23 0.0 0.0 0.00 0.08 0.00 55 1011.2
20260901121542 23 0.0 0.0 0.00 0.15 0.00 55 1011.1
20260901120543 23 0.0 0.0 0.00 0.20 0.00 55 1011.0
20260901115539 23 0.0 0.0 0.00 0.20 0.00 55 1010.8
20260901114525 23 0.0 0.0 0.00 0.36 0.00 55 1011.0
20260901113531 23 0.0 0.0 0.00 0.48 0.00 55 1011.0
20260901112554 23 0.0 0.0 0.00 0.48 0.00 55 1011.0
20260901111545 23 0.0 0.0 0.00 0.48 0.00 55 1011.0
20260901110524 24 0.0 0.0 0.00 0.48 0.00 55 1011.0
20260901105522 24 0.0 0.0 0.00 0.48 0.00 55 1010.9
20260901104529 24 0.0 0.0 0.00 0.48 0.00 55 1010.8
20260901103530 24 0.0 0.0 0.00 0.48 0.00 55 1011.0
20260901102535 24 0.0 0.0 0.00 0.48 0.00 55 1010.8
20260901101542 24 0.0 0.0 0.00 0.48 0.00 55 1010.7
20260901100520 24 0.0 0.0 0.00 0.48 0.00 55 1010.6
20260901095519 24 0.0 0.0 0.00 0.48 0.00 55 1010.6
20260901094547 24 50 0.0 0.0 0.00 0.48 0.00 55 1010.6
20260901093526 24 30 0.0 0.0 0.00 0.48 0.00 55 1010.6
20260901092523 24 0.0 0.0 0.00 0.48 0.00 55 1010.5
20260901091521 24 0.0 0.0 0.00 0.48 0.00 55 1010.6
20260901090522 24 0.0 0.0 0.00 0.48 0.00 55 1010.7
20260901085525 25 0.0 0.0 0.00 0.48 0.00 55 1010.7
20260901084615 25 0.0 0.0 0.00 0.48 0.00 54 1010.7
20260901083542 25 0.0 0.0 0.00 0.48 0.00 54 1010.8
20260901082530 25 0.0 0.0 0.00 0.48 0.00 54 1010.8
20260901081519 25 0.0 0.0 0.00 0.48 0.00 54 1010.7
20260901080521 25 0.0 0.0 0.00 0.48 0.00 54 1010.7
20260901075531 25 0.0 0.0 0.00 0.48 0.00 54 1010.8
20260901074558 25 0.0 0.0 0.00 0.48 0.00 54 1010.9
20260901073527 25 0.0 0.0 0.00 0.48 0.00 55 1010.8
20260901072543 25 0.0 0.0 0.00 0.48 0.00 55 1010.8
20260901071522 25 0.0 0.0 0.00 0.48 0.00 55 1010.8
20260901070528 25 121 0.0 0.0 0.00 0.48 0.00 55 1010.8
20260901065522 25 0.0 1.6 0.00 0.48 0.48 55 1010.7
20260901064523 25 0.0 0.0 0.00 0.48 0.48 55 1010.7
20260901063533 25 0.0 0.0 0.00 0.48 0.48 55 1010.9
20260901062520 25 0.0 0.0 0.00 0.48 0.48 55 1011.0
20260901061529 25 0.0 0.0 0.00 0.48 0.48 55 1011.1
20260901060527 26 0.0 0.0 0.00 0.48 0.48 55 1011.0
20260901055541 26 0.0 0.0 0.00 0.48 0.48 55 1011.0
20260901054522 26 0.0 0.0 0.00 0.48 0.48 55 1010.9
20260901053540 26 0.0 0.0 0.00 0.48 0.48 55 1010.7
20260901052522 26 140 0.0 0.0 0.00 0.48 0.48 55 1010.7
20260901051529 26 302 0.0 1.6 0.00 0.48 0.48 55 1010.6
20260901050555 26 143 0.0 1.6 0.00 0.48 0.48 55 1010.8
20260901045533 26 231 0.0 1.6 0.00 0.48 0.48 55 1011.0
20260901044540 26 200 0.0 1.6 0.00 0.48 0.48 55 1011.0
20260901043520 26 0.0 0.0 0.00 0.48 0.48 55 1010.9
20260901042533 26 0.0 0.0 0.00 0.48 0.48 55 1010.9
20260901041553 26 0.0 0.0 0.00 0.48 0.48 55 1010.7
20260901040529 26 0.0 0.0 0.00 0.48 0.48 55 1010.7
20260901035607 27 0.0 0.0 0.00 0.48 0.48 55 1010.8
20260901034520 27 0.0 0.0 0.00 0.48 0.48 55 1010.6
20260901033523 27 0.0 0.0 0.00 0.48 0.48 55 1010.5
20260901032529 27 0.0 0.0 0.00 0.48 0.48 55 1010.5
20260901031526 27 0.0 0.0 0.00 0.48 0.48 55 1010.5
20260901030534 27 0.0 0.0 0.00 0.48 0.48 55 1010.4
20260901025531 27 0.0 0.0 0.00 0.48 0.48 54 1010.2
20260901024520 27 0.0 0.0 0.00 0.48 0.48 54 1009.9
20260901023527 26 0.0 0.0 0.00 0.48 0.48 54 1009.7
20260901022526 27 0.0 0.0 0.00 0.48 0.48 54 1009.7
20260901021604 27 0.0 0.0 0.00 0.48 0.48 53 1009.4
20260901020522 27 0.0 0.0 0.00 0.48 0.48 54 1009.2
20260901015519 27 0.0 0.0 0.00 0.48 0.48 54 1009.2
20260901014524 27 0.0 0.0 0.00 0.48 0.48 54 1009.1
20260901013519 27 0.0 0.0 0.00 0.48 0.48 54 1008.8
20260901012535 27 0.0 0.0 0.00 0.48 0.48 54 1008.8
20260901011541 27 0.0 0.0 0.00 0.48 0.48 54 1008.8
20260901010526 27 0.0 0.0 0.00 0.48 0.48 54 1008.9
20260901005520 27 0.0 0.0 0.00 0.48 0.48 54 1008.9
20260901004526 27 0.0 0.0 0.00 0.48 0.48 54 1008.8
20260901003532 27 0.0 0.0 0.00 0.48 0.48 54 1008.9
20260901002538 27 0.0 0.0 0.00 0.48 0.48 54 1008.9
20260901001543 27 59 0.0 0.0 0.00 0.48 0.48 54 1008.9
20260901000540 27 185 1.6 1.6 0.00 0.48 0.48 54 1008.9
20260831235524 27 227 1.6 1.6 0.00 0.48 0.48 54 1008.9
20260831234520 27 182 1.6 1.6 0.00 0.48 0.48 54 1009.0